TimeCDT,TemperatureF,Dew PointF,Humidity,Sea Level PressureIn,VisibilityMPH,Wind Direction,Wind SpeedMPH,Gust SpeedMPH,PrecipitationIn,Events,Conditions,WindDirDegrees,DateUTC
12:52 AM,69.1,55.0,61,29.96,10.0,South,5.8,-,N/A,,Clear,170,2013-09-15 05:52:00
1:52 AM,68.0,55.9,65,29.96,10.0,SSE,5.8,-,N/A,,Clear,150,2013-09-15 06:52:00
2:52 AM,66.9,55.9,68,29.96,10.0,SSE,4.6,-,N/A,,Clear,160,2013-09-15 07:52:00
3:52 AM,68.0,54.0,61,29.96,10.0,SSE,4.6,-,N/A,,Clear,160,2013-09-15 08:52:00
4:52 AM,68.0,52.0,56,29.96,10.0,SSE,5.8,-,N/A,,Clear,160,2013-09-15 09:52:00
5:52 AM,68.0,52.0,56,29.96,10.0,SSE,5.8,-,N/A,,Clear,160,2013-09-15 10:52:00
6:52 AM,66.9,52.0,59,29.97,10.0,SSE,8.1,-,N/A,,Clear,160,2013-09-15 11:52:00
7:52 AM,66.9,53.1,61,30.00,10.0,South,5.8,-,N/A,,Clear,170,2013-09-15 12:52:00
8:52 AM,71.1,54.0,55,30.00,10.0,South,10.4,-,N/A,,Clear,180,2013-09-15 13:52:00
9:52 AM,75.0,54.0,48,30.01,10.0,SSW,12.7,17.3,N/A,,Clear,210,2013-09-15 14:52:00
10:52 AM,79.0,53.1,40,30.01,10.0,South,16.1,23.0,N/A,,Clear,190,2013-09-15 15:52:00
11:52 AM,82.9,55.9,39,30.00,10.0,South,15.0,23.0,N/A,,Clear,180,2013-09-15 16:52:00
12:52 PM,86.0,57.0,37,29.98,10.0,South,12.7,-,N/A,,Clear,180,2013-09-15 17:52:00
1:52 PM,89.1,59.0,36,29.97,10.0,SSW,12.7,-,N/A,,Clear,200,2013-09-15 18:52:00
2:52 PM,91.0,61.0,36,29.96,10.0,SSW,11.5,-,N/A,,Clear,200,2013-09-15 19:52:00
3:52 PM,89.1,61.0,39,29.96,10.0,SSW,9.2,-,N/A,,Partly Cloudy,200,2013-09-15 20:52:00
4:52 PM,88.0,61.0,40,29.95,10.0,South,10.4,-,N/A,,Partly Cloudy,190,2013-09-15 21:52:00
5:52 PM,86.0,62.1,44,29.96,10.0,South,6.9,-,N/A,,Partly Cloudy,190,2013-09-15 22:52:00
6:52 PM,84.9,64.0,49,29.96,10.0,SE,4.6,-,N/A,,Clear,140,2013-09-15 23:52:00
7:52 PM,81.0,64.9,58,29.97,10.0,Calm,Calm,-,N/A,,Clear,0,2013-09-16 00:52:00
8:52 PM,77.0,64.9,66,29.99,10.0,East,3.5,-,N/A,,Clear,80,2013-09-16 01:52:00
9:52 PM,78.1,64.9,64,30.02,10.0,NNE,3.5,-,N/A,,Clear,20,2013-09-16 02:52:00
10:52 PM,78.1,64.9,64,30.03,10.0,NNE,6.9,-,N/A,,Clear,20,2013-09-16 03:52:00
11:52 PM,75.9,66.0,71,30.05,10.0,NNW,6.9,-,N/A,,Partly Cloudy,340,2013-09-16 04:52:00